Lexington Weather

Lexington, Massachusetts, USA

46°F
10/26/2020 5:40am 
  • Lexington Conditions: Overcast
  • Temperature: 45.9°F / 7.7°CWarmer 0.8°F than last hour.
  • Dew Point: 41.0°FIncreased 1.6°Fsince last hour.
  • Relative Humidity: 83%Increased 3.0% since last hour.
  • Wind: Wind from S S 1 mph, 10-min avg: 1 mph, gust: 2 mph
  • Barometer: 30.27 in Steady
  • Visibility: 10 miles
  • Rain Today: 0.00 in
  •   

Regional Weather Roundup
for Boston / Norton, MA

        
000
ASUS41 KBOX 241304
RWRBOX

REGIONAL WEATHER ROUNDUP
NATIONAL WEATHER SERVICE BOSTON/NORTON MA
900 AM EDT SAT OCT 24 2020

NOTE:  "FAIR" INDICATES FEW OR NO CLOUDS BELOW 12,000 FEET WITH NO 
SIGNIFICANT WEATHER AND/OR OBSTRUCTIONS TO VISIBILITY.

MAZALL-241400-
EASTERN MASSACHUSETTS
  
CITY           SKY/WX    TMP DP  RH WIND       PRES   REMARKS
BOSTON         MOSUNNY   57  52  83 S7        29.93F                  
BEVERLY        MOSUNNY   59  53  80 SW5       29.92S                  
LAWRENCE       CLOUDY    58  53  84 S7        29.94F                  
BEDFORD        CLOUDY    58  53  84 W5        29.92S                  
BLUE HILL        N/A     56  52  86 S10       29.92F                  
NORWOOD        MOSUNNY   60  53  77 S7        29.93S                  
MARSHFIELD     MOSUNNY   61  55  82 S6        29.93F                  
PLYMOUTH       SUNNY     58  52  80 MISG      29.94S                  
TAUNTON        SUNNY     60  53  77 S3        29.93F                  
NEW BEDFORD    SUNNY     61  53  75 S5        29.94S                  
$$

MAZALL-241400-
CAPE COD AND THE ISLANDS
  
CITY           SKY/WX    TMP DP  RH WIND       PRES   REMARKS
FALMOUTH       SUNNY     57  52  82 SW6       29.95F                  
HYANNIS        MOSUNNY   59  52  77 CALM      29.94F                  
CHATHAM        CLOUDY    59  53  80 CALM      29.97S                  
PROVINCETOWN   MOSUNNY   59  52  77 S6        29.96S                  
NANTUCKET      CLOUDY    59  53  80 W5        29.96S                  
MARTHAS VNYRD  MOSUNNY   60  53  77 S5        29.95F                  
$$
 
MAZALL-241400-
CENTRAL AND WESTERN MASSACHUSETTS
  
CITY           SKY/WX    TMP DP  RH WIND       PRES   REMARKS
WORCESTER      CLOUDY    55  54  96 SW12      29.92F FOG              
FITCHBURG      CLOUDY    57  55  93 SE6       29.92F                  
ORANGE         CLOUDY    61  58  90 SW7       29.92S                  
SPRINGFIELD    CLOUDY    61  57  87 S7        29.90F                  
WESTFIELD      CLOUDY    61  59  93 S7        29.91S                  
NORTH ADAMS    CLOUDY    65  57  75 SE5       29.88F                  
PITTSFIELD     CLOUDY    63  57  81 SW10      29.89F                  
$$
 
RIZALL-241400-
RHODE ISLAND
  
CITY           SKY/WX    TMP DP  RH WIND       PRES   REMARKS
PROVIDENCE     PTSUNNY   59  55  87 S7        29.95S                  
NEWPORT        CLOUDY    61  55  81 VRB3      29.94F                  
BLOCK ISLAND   CLOUDY    60  55  83 S6        29.96S                  
SMITHFIELD     MOSUNNY   58  55  90 SW5         N/A                   
WESTERLY       CLOUDY    61  54  77 S6        29.95F                  
$$
 
CTZALL-241400-
CONNECTICUT
  
CITY           SKY/WX    TMP DP  RH WIND       PRES   REMARKS
BRADLEY INTL   CLOUDY    61  58  90 S8        29.91F                  
HARTFORD       CLOUDY    62  57  83 S7        29.93S                  
BRIDGEPORT     CLOUDY    64  60  87 S9        29.93F                  
DANBURY        CLOUDY    62  59  90 SW5       29.94                   
GROTON         CLOUDY    62  56  80 S7        29.94F                  
NEW HAVEN      CLOUDY    65  61  87 S8        29.93F                  
CHESTER        CLOUDY    61  59  94 S3        29.94F FOG              
MERIDEN        CLOUDY    62  59  90 S6        29.93F                  
WILLIMANTIC    CLOUDY    59  55  87 VRB3      29.94F                  
OXFORD         CLOUDY    61  61 100 VRB6      29.95S FOG              
$$

MEZ002-015-021-024-NHZ003-005-008-011-012-014-VTZ005-008-241400-
NORTHERN NEW ENGLAND
  
CITY           SKY/WX    TMP DP  RH WIND       PRES   REMARKS
PORTLAND ME    CLOUDY    55  53  93 S5        29.92F                  
BANGOR ME      CLOUDY    54  52  93 S9        29.92S                  
CONCORD NH     CLOUDY    55  53  93 S7        29.91F                  
MANCHESTER NH  CLOUDY    57  52  83 S6        29.90F                  
NASHUA NH      CLOUDY    56  56 100 S3        29.93S                  
PORTSMOUTH NH  PTSUNNY   57  52  84 SW5       29.91S                  
JAFFREY NH     CLOUDY    59  55  87 SW6       29.92S                  
KEENE NH       CLOUDY    61  57  87 S6        29.90S                  
BURLINGTON VT  LGT RAIN  61  56  83 W13G20    29.85R                  
MT. WASHINGTON LGT RAIN  45  45 100 W41         N/A  VSB 1/16         
$$

NYZ052-076-241400-
EASTERN NEW YORK
  
CITY           SKY/WX    TMP DP  RH WIND       PRES   REMARKS
ALBANY         PTSUNNY   59  58  96 S12       29.89R                  
NEW YORK CITY  CLOUDY    65  58  78 SW7       29.94R                  
$$
 
ANZALL-241400-
MARINE OBSERVATIONS
  
STATION/POSITION TIME  TEMP    WIND        PRES    VSBY  WAVE
                       AIR SEA DIR/SP/G                  HT/PER
                 (UTC) (F)     (DEG/KT/KT) (MB)    (MI)  (FT/S)
BOSTON BUOY      1250   58 58  160/ 10/ 12 1012.6F         4/11
BUZZARDS BAY     1200          210/  2/  3 1015.3F
NANTUCKET SOUND  1240      62  270/  4/ 10   N/A
MASS BAY-STELLWA 1204   57 58  180/  8/  8 1013.1F  1 7/8  5/11
ISLE OF SHOALS   1200   56     210/  9/  9 1013.1F
S OF BLOCK IS    1226      63                N/A           7/13
$$

......................KEY.........................
  SKY/WX - SKY CONDITION/PRESENT WEATHER
  TMP    - TEMPERATURE IN FAHRENHEIT
  DWPT   - DEWPOINT IN FAHRENHEIT
  RH     - RELATIVE HUMIDITY IN PERCENT
  WIND   - DIRECTION AND SPEED IN MPH
  PRES   - MEAN SEA LEVEL PRESSURE IN INCHES OF HG
  WCI    - WIND CHILL INDEX
  VSB    - VISIBILITY IN MILES
  HX     - HEAT INDEX
  TC     - TEMPERATURE IN CELSIUS
  VRB    - VARIABLE WIND DIRECTION
  N/A    - NOT AVAILABLE
  
      

Other recent Regional Weather Roundups

Mon Oct 26, 5:04am

Mon Oct 26, 4:04am

Mon Oct 26, 3:04am

Mon Oct 26, 2:04am

Mon Oct 26, 1:04am

Mon Oct 26, 12:04am

Sun Oct 25, 11:05pm

Sun Oct 25, 10:04pm

Sun Oct 25, 9:04pm

Sun Oct 25, 8:04pm

Sun Oct 25, 7:04pm

Sun Oct 25, 6:04pm

Sun Oct 25, 5:04pm

Sun Oct 25, 4:05pm

Sun Oct 25, 3:04pm

Sun Oct 25, 2:04pm

Sun Oct 25, 1:04pm

Sun Oct 25, 12:04pm

Sun Oct 25, 11:04am

Sun Oct 25, 10:04am

Sun Oct 25, 9:04am

Sun Oct 25, 8:04am

Sun Oct 25, 7:04am

Sun Oct 25, 6:04am

Sun Oct 25, 5:04am

Sun Oct 25, 4:04am

Sun Oct 25, 3:04am

Sun Oct 25, 2:04am

Sun Oct 25, 1:05am

Sun Oct 25, 12:04am

Sat Oct 24, 11:04pm

Sat Oct 24, 10:04pm

Sat Oct 24, 9:04pm

Sat Oct 24, 8:04pm

Sat Oct 24, 7:04pm

Sat Oct 24, 6:04pm

Sat Oct 24, 5:05pm

Sat Oct 24, 4:04pm

Sat Oct 24, 3:04pm

Sat Oct 24, 2:04pm

Sat Oct 24, 1:05pm

Sat Oct 24, 12:04pm

Sat Oct 24, 11:05am

Sat Oct 24, 10:05am

Sat Oct 24, 8:04am

Sat Oct 24, 7:04am

Sat Oct 24, 6:04am

Sat Oct 24, 5:04am

Sat Oct 24, 4:04am

Sat Oct 24, 3:04am

Sat Oct 24, 2:04am

Sat Oct 24, 1:05am

Sat Oct 24, 12:04am

Fri Oct 23, 11:04pm

Fri Oct 23, 10:04pm

Fri Oct 23, 9:04pm

Fri Oct 23, 8:05pm

Fri Oct 23, 7:04pm

Fri Oct 23, 6:04pm

Fri Oct 23, 5:05pm

Fri Oct 23, 4:04pm

Fri Oct 23, 3:04pm

Fri Oct 23, 2:05pm

Fri Oct 23, 1:04pm

Fri Oct 23, 12:04pm

Fri Oct 23, 11:04am

Fri Oct 23, 10:04am

Fri Oct 23, 9:04am

Fri Oct 23, 8:04am

Fri Oct 23, 7:04am

Fri Oct 23, 6:04am

Fri Oct 23, 5:04am

Fri Oct 23, 4:04am

Fri Oct 23, 3:04am

Fri Oct 23, 2:04am

Fri Oct 23, 1:04am

Fri Oct 23, 12:04am

Thu Oct 22, 11:04pm

Thu Oct 22, 10:04pm

Thu Oct 22, 9:05pm

Thu Oct 22, 8:04pm

Thu Oct 22, 7:05pm

Thu Oct 22, 6:04pm

Thu Oct 22, 5:04pm

Thu Oct 22, 4:05pm

Thu Oct 22, 3:04pm

Thu Oct 22, 2:05pm

Thu Oct 22, 1:04pm

Thu Oct 22, 12:04pm

Thu Oct 22, 11:04am

Thu Oct 22, 10:05am

Thu Oct 22, 9:04am

Thu Oct 22, 8:05am

Thu Oct 22, 7:04am

Thu Oct 22, 6:04am

Thu Oct 22, 5:04am

Thu Oct 22, 4:04am

Thu Oct 22, 3:04am

Thu Oct 22, 2:04am

Thu Oct 22, 1:04am

Thu Oct 22, 12:04am

Wed Oct 21, 11:05pm

Wed Oct 21, 10:04pm

Wed Oct 21, 9:04pm

Wed Oct 21, 8:04pm

Wed Oct 21, 7:04pm

Wed Oct 21, 6:04pm

Wed Oct 21, 5:05pm

Wed Oct 21, 4:04pm

Wed Oct 21, 3:04pm

Wed Oct 21, 2:05pm

Wed Oct 21, 1:04pm

Wed Oct 21, 12:04pm

Wed Oct 21, 11:04am

Wed Oct 21, 10:04am

Wed Oct 21, 9:04am

Wed Oct 21, 8:04am

Wed Oct 21, 7:04am

Wed Oct 21, 6:04am

Wed Oct 21, 5:04am

Wed Oct 21, 4:04am

Wed Oct 21, 3:04am

Wed Oct 21, 2:04am

Wed Oct 21, 1:04am

Wed Oct 21, 12:04am

Tue Oct 20, 11:05pm

Tue Oct 20, 10:04pm

Tue Oct 20, 9:04pm

Tue Oct 20, 8:05pm

Tue Oct 20, 7:04pm

Tue Oct 20, 6:04pm

Tue Oct 20, 5:05pm

Tue Oct 20, 4:04pm

Tue Oct 20, 3:05pm

Tue Oct 20, 2:07pm

Tue Oct 20, 1:04pm

Tue Oct 20, 12:04pm

Tue Oct 20, 11:04am

Tue Oct 20, 10:05am

Tue Oct 20, 9:04am

Tue Oct 20, 8:04am

Tue Oct 20, 7:04am

Tue Oct 20, 6:04am

Tue Oct 20, 5:04am

Tue Oct 20, 4:04am

Tue Oct 20, 3:04am

Tue Oct 20, 2:04am

Tue Oct 20, 1:04am

Tue Oct 20, 12:04am

Mon Oct 19, 11:04pm

Mon Oct 19, 10:04pm

Mon Oct 19, 9:04pm

Mon Oct 19, 8:04pm

Mon Oct 19, 7:04pm

Mon Oct 19, 6:04pm

Mon Oct 19, 5:04pm

Mon Oct 19, 4:04pm

Mon Oct 19, 3:04pm

Mon Oct 19, 2:04pm

Mon Oct 19, 1:05pm

Mon Oct 19, 12:04pm

Mon Oct 19, 11:04am

Mon Oct 19, 10:04am

Mon Oct 19, 9:04am

Mon Oct 19, 8:04am

Mon Oct 19, 7:04am

Mon Oct 19, 6:04am

Mon Oct 19, 5:04am

Meta data:

ID: a7134932-4d7e-4ffc-ab44-ad581bf9cb85
Link: https://api.weather.gov/products/a7134932-4d7e-4ffc-ab44-ad581bf9cb85